CZ-6A DEB, 60634

Orbit data source: Space-Track

CZ-6A DEB, 60634 is space debris in LEO originally from a launch on Tue, 06 Aug 2024 UTC launched from the Taiyaun Space Center, China (TSC). Debris objects in space refer to the collection of defunct objects orbiting the Earth. Examples of debris include non-operational satellites, rocket bodies, and fragments generated from explosions, collisions, or faulty payload assembly.

Loading next visibility...
Identifier
60634, 2024-140AK
Orbit
LEO
Country
Flag of CNCN / PRC
Related business
Manufacturer
SAST
Mission
Spacecraft
Bus & Motor
Unknown
Mass
Unknown
Launch date (UTC)
2024-08-06 (2 years ago)
Launch vehicle
Unknown
Launch site
Taiyaun Space Center, China (TSC)
Object type
Payload
Rocket body
Debris
Shape & HBR
Unknown shape, 0.4 m
Radar Cross Section
Medium (>0.1 m² and <1 m²)

Expand to show TLE details & history
Last TLE update: 14 hours ago

TLE from 14 hours ago
0 CZ-6A DEB
1 60634U 24140AK  26171.27522025  .00018032  00000-0  14042-2 0  9999
2 60634  89.0641 272.2076 0132742 142.5931 218.4634 14.94334582100898
Epoch: 2026-06-20T06:36Z
TLE epoch observation values (Epoch: 2026-06-20T06:36:19.029Z)
Latitude
-0.00002°
Longitude
-95.36387°
Altitude
660.451 km
Speed
7.488 km/s
True Right ascension
18h 08m 49s
True Declination
0° 00' 00"
Sunlit
Object was in full shadow at epoch
Visualization orbit readout
Latitude
Unknown
Longitude
Unknown
Altitude
Unknown
Speed
Unknown
Apparent Right ascension
Unknown
Apparent Declination
Unknown
Sunlit
N/A
Visualization observer readout
Local Sidereal Time
07:24:09
Azimuth
Unknown
Elevation
Unknown
Doppler factor
Unknown
Orbital elements
Apogee altitude
673.664 km
Perigee altitude
488.902 km
Semi-major axis
6,959.42 km
Eccentricity
0.01327
Inclination
89.0641°
RAAN
272.2076°
Arg. of periapsis
142.5931°
True anomaly
217.52943°
Mean anomaly
218.4634°
Eccentric anomaly
217.99521°
Mean motion
3.73838 °/min
Orbital period
96.3 mins
BSTAR
0.0014042
Loading maneuver chart data...
Computing Atmospheric mass density...
Loading historical data...
Loading historical data...
Loading historical data...
Loading historical data...
Loading historical data...
Loading historical data...
Loading historical data...

Documentation

Showing up to 5 results
|